Home   Weather   Acworth   Past weeks

Flag for USA Past Weather in Acworth, Georgia, USA — Yesterday and Last 2 Weeks

Now
55 °F

Mostly cloudy.


Feels Like: 52 °F
Forecast: 54 / 72 °F
Wind: 12 mph from West

Location: Cobb County-McCollum Field Airport

Current Time: May 25, 2017 at 8:24:41 am

Latest Report: May 25, 2017 at 7:47 am


Visibility: 10 mi

Pressure: 29.71 "Hg

Humidity: 100%

Dew Point: 55 °F

Location of AcworthLocation

Past Weather in Acworth — Graph

°F

Acworth Temperature Yesterday

Maximum temperature yesterday: 79 °F (at 1:47 pm)
Minimum temperature yesterday: 61 °F (at 10:47 pm)
Average temperature yesterday: 69 °F

High & Low Weather Summary for the Past Weeks

 TemperatureHumidityPressure
High97 °F (May 19, 3:47 pm)100% (May 20, 7:47 pm)30.17 "Hg (May 20, 7:47 pm)
Low55 °F (May 25, 6:47 am)28% (May 17, 2:47 pm)29.49 "Hg (May 24, 3:47 pm)
Average77 °F68%29.99 "Hg
* Reported May 16 3:47 pm — May 25 6:47 am, Acworth. Weather by CustomWeather, © 2017

Note: Actual official high and low records may vary slightly from our data, if they occured in-between our weather recording intervals... More about our weather records

Advertising

Acworth Weather History for the Previous 24 Hours

Scroll right to see more
 ConditionsComfort  
Time TempWeatherWind HumidityBarometerVisibility
6:47 am
Thu, May 25
55 °FPartly sunny.12 mph100%29.67 "Hg7 mi
10:47 pm
Wed, May 24
61 °FOvercast.6 mph77%29.59 "Hg10 mi
9:47 pm63 °FOvercast.7 mph73%29.57 "Hg10 mi
8:47 pm64 °FPassing clouds.12 mph68%29.55 "Hg10 mi
7:47 pm68 °FScattered clouds.18 mph60%29.53 "Hg10 mi
6:47 pm72 °FPartly sunny.16 mph57%29.50 "Hg10 mi
5:47 pm75 °FScattered clouds.20 mph50%29.50 "Hg10 mi
4:47 pm73 °FMostly cloudy.20 mph61%29.50 "Hg10 mi
3:47 pm75 °FScattered clouds.14 mph57%29.49 "Hg10 mi
2:47 pm72 °FPartly sunny.16 mph69%29.50 "Hg10 mi
1:47 pm79 °FPartly sunny.12 mph61%29.51 "Hg10 mi
12:47 pm75 °FPartly sunny.9 mph74%29.54 "Hg10 mi
11:47 am68 °FPartly sunny.9 mph100%29.58 "Hg10 mi
10:47 am68 °FPartly sunny.9 mph100%29.59 "Hg7 mi
9:47 am66 °FPartly sunny.5 mph100%29.60 "Hg7 mi
8:47 am66 °FPartly sunny.5 mph100%29.62 "Hg7 mi
Weather by CustomWeather, © 2017

See weather overviewHow to use our weather pages